Retour au catalogue

TYVAK-0173

ActifSciencePO
NORAD 48892·PAYLOAD·🇦🇺 Australia

Lancé Jun 30, 2021 depuis Cape Canaveral Space Force Station

Loading…

Prochains Passages (prochaines 24 heures)

TLE

FraisSource: Space-Track

Époque: Sep 14, 2026, 02:53 UTC

1 48892U 21059P   26257.12015216  .00001176  00000-0  15175-3 0  9995
2 48892  95.9995 311.3438 0011005  88.5089 271.7390 14.82115030281417

Suivez TYVAK-0173 en temps réel avec AllMySat

Download on the App Store